Regional Weather Roundup
Issued by NWS

Home | Current Version | Previous Version | Graphics & Text | Print | Product List | Glossary On
Versions: 1 2 3 4 5 6 7 8 9 10 11 12 13 14 15 16 17 18 19 20 21 22 23 24 25 26 27 28 29 30 31 32 33 34 35 36 37 38 39 40 41 42 43 44 45 46 47 48 49 50
000
ASUS43 KMPX 221710
RWRMN
WEATHER ROUNDUP FOR MINNESOTA
NATIONAL WEATHER SERVICE TWIN CITIES/CHANHASSEN MN
1200 PM CDT MON SEP 22 2014


NOTE: "FAIR" INDICATES FEW OR NO CLOUDS BELOW 12,000 FEET WITH NO
SIGNIFICANT WEATHER AND/OR OBSTRUCTIONS TO VISIBILITY. N/A MEANS
CURRENT SKY AND/OR WEATHER CONDITIONS ARE NOT AVAILABLE.

MNZ060>063-068>070-221800-
   Twin Cities Metro

CITY           SKY/WX    TMP DP  RH WIND       PRES   REMARKS
TWIN CITIES    MOSUNNY   65  51  60 W6        30.26F
ST PAUL        SUNNY     65  51  60 W7        30.26F
CRYSTAL        SUNNY     67  50  54 W9        30.24F
BLAINE         SUNNY     66  54  63 W8        30.25S
LAKEVILLE      SUNNY     64  52  63 W6        30.26F
EDEN PRAIRIE   SUNNY     66  53  63 VRB6      30.25F
SOUTH ST PAUL  SUNNY     65  50  58 W6        30.26S
LAKE ELMO      FAIR      64  52  63 W6        30.26F
$$
MNZ001>005-007-008-013>017-022>024-027-028-221800-
   Northwest Minnesota

CITY           SKY/WX    TMP DP  RH WIND       PRES   REMARKS
BEMIDJI        SUNNY     67  49  52 W10       30.17S
HALLOCK        SUNNY     70  52  52 SW8       30.09F
ROSEAU         SUNNY     70  52  52 W7        30.10F
WARROAD        SUNNY     66  54  63 SW10      30.10F
THIEF RVR FALL SUNNY     66  50  55 SW7       30.14F
CROOKSTON      SUNNY     64  54  68 SW8       30.15S
FOSSTON        SUNNY     66  50  55 SW9       30.16F
DETROIT LAKES  SUNNY     64  50  59 SW8       30.20S
MOORHEAD       SUNNY     68  52  56 W9        30.17F
PARK RAPIDS    SUNNY     68  49  50 W7        30.19F
MAHNOMEN       FAIR      67  49  53 SW9       30.17F
$$
MNZ006-009>011-018-025>026-221800-
   North Central Minnesota

CITY           SKY/WX    TMP DP  RH WIND       PRES   REMARKS
BAUDETTE       SUNNY     68  50  52 SW9       30.10F
FLAG ISLAND    SUNNY     66  48  52 SW8       30.06S
INTL FALLS     SUNNY     66  51  58 W13G18    30.10F
WASKISH        SUNNY     63  54  72 SW5       30.14F
BIG FORK       SUNNY     70  50  49 W5        30.16F
LONGVILLE      SUNNY     66  52  59 SW7       30.19F
GRAND RAPIDS   SUNNY     64  48  55 W8        30.18F
CRANE LAKE     SUNNY     64  50  59 W3        30.13F
ORR            SUNNY     66  48  52 W5        30.11F
COOK           SUNNY     64  52  63 W10       30.15F
WALKER         FAIR      64  49  57 W6        30.18F
$$
MNZ012-019>021-037-221800-
   Northeast Minnesota

CITY           SKY/WX    TMP DP  RH WIND       PRES   REMARKS
DULUTH         SUNNY     65  50  58 W15       30.18F
ELY            SUNNY     63  48  59 W9G17     30.13F
HIBBING        SUNNY     66  51  58 W9        30.17F
EVELETH        SUNNY     63  50  63 SW10      30.17F
DULUTH HARBOR  SUNNY     64  54  68 SW13      30.18F
TWO HARBORS    SUNNY     64  50  59 W8G17     30.14F
SILVER BAY     SUNNY     64  54  68 SW5       30.13F
GRAND MARAIS     N/A     57  51  80 W5        30.11F
G MARAIS ARPRT SUNNY     63  46  55 SW10      30.12F
$$
MNZ029>031-032-039>041-046>048-054>057-064-221800-
   West Central Minnesota

CITY           SKY/WX    TMP DP  RH WIND       PRES   REMARKS
FERGUS FALLS   SUNNY     66  46  48 SW6       30.20F
WHEATON        SUNNY     68  48  49 SW8       30.21F
MORRIS         SUNNY     68  54  60 SW8       30.20F
ALEXANDRIA     SUNNY     65  51  60 SW6       30.23F
ELBOW LAKE     FAIR      67  52  58 W6        30.20F
WADENA         SUNNY     66  50  55 SW8       30.20F
GLENWOOD       SUNNY     66  50  55 W7        30.23F
APPLETON       SUNNY     70  50  49 S5        30.22F
BENSON         SUNNY     66  52  59 W5        30.22F
ORTONVILLE     SUNNY     70  48  46 CALM      30.21F
MADISON        SUNNY     72  52  49 SW7       30.22F
WILLMAR        FAIR      66  48  52 SW8       30.25F
$$
MNZ033>034-036-042>043-049>051-058-059-221800-
   Central Minnesota

CITY           SKY/WX    TMP DP  RH WIND       PRES   REMARKS
ST CLOUD       SUNNY     69  50  50 SW9       30.23F
SAUK CENTRE    FAIR      66  50  55 W8        30.23F
PAYNESVILLE    SUNNY     63  50  61 S6        30.24F
AITKIN         SUNNY     70  54  56 SW5       30.19F
PINE RIVER     SUNNY     64  52  63 CALM      30.22F
BRAINERD       SUNNY     64  49  57 W8        30.21F
STAPLES        SUNNY     66  48  52 W7        30.20F
LONG PRAIRIE   FAIR      64  50  59 SW5       30.22F
LITTLE FALLS   SUNNY     64  46  52 W8        30.22F
LITCHFIELD     SUNNY     66  54  63 SW5       30.24F
BUFFALO        SUNNY     65  50  57 W6        30.25F
MAPLE LAKE     SUNNY     67  53  62 SW7       30.25F
$$
MNZ037-044-045-052-053-221800-
   East Central Minnesota

CITY           SKY/WX    TMP DP  RH WIND       PRES   REMARKS
PRINCETON      SUNNY     68  52  56 W8        30.24S
MORA           SUNNY     64  52  63 W3        30.24F
CAMBRIDGE      SUNNY     68  52  56 SW5       30.22F
RUSH CITY      SUNNY     64  52  64 W6        30.24F
MOOSE LAKE     SUNNY     64  50  59 W8        30.18F
HINCKLEY       FAIR      64  52  63 W9        30.22F
CLOQUET        SUNNY     64  48  55 W13G18    30.19F
$$
MNZ071>073-080-081-089-090-097-098-221800-
   Southwest Minnesota

CITY           SKY/WX    TMP DP  RH WIND       PRES   REMARKS
MONTEVIDEO     SUNNY     72  55  56 W7        30.23F
GRANITE FALLS  SUNNY     69  48  46 SW8       30.25F
CANBY          SUNNY     68  48  48 SW7       30.24F
MARSHALL       SUNNY     70  45  40 W9        30.24S
REDWOOD FALLS  SUNNY     68  49  50 W8        30.24F
OLIVIA         SUNNY     68  50  52 SW8       30.23F
PIPESTONE      SUNNY     66  46  48 W8        30.25F
WINDOM         SUNNY     66  48  52 S8        30.27F
WORTHINGTON    SUNNY     66  46  48 SW7       30.28F
JACKSON        SUNNY     66  46  48 SW6       30.28F
TRACY          SUNNY     68  49  49 SW5       30.26F
SLAYTON        SUNNY     66  45  46 CALM      30.27F
$$
MNZ065>067-074>077-082>085-091>093-221800-
   South Central Minnesota

CITY           SKY/WX    TMP DP  RH WIND       PRES   REMARKS
MANKATO        SUNNY     64  48  55 W8        30.27F
NEW ULM        SUNNY     66  52  59 SW9       30.25F
ST JAMES       SUNNY     68  48  49 SW5       30.27F
FAIRMONT       SUNNY     66  46  48 SW5       30.28F
GLENCOE        SUNNY     67  49  51 SW6       30.25F
FARIBAULT      SUNNY     68  48  49 W7        30.27F
OWATONNA       SUNNY     64  48  55 NW5       30.27F
WASECA         SUNNY     63  45  51 W6        30.29F
ALBERT LEA     SUNNY     64  50  59 NW6       30.28F
$$
MNZ078>079-086>088-094>096-221800-
   Southeast Minnesota

CITY           SKY/WX    TMP DP  RH WIND       PRES   REMARKS
ROCHESTER      SUNNY     63  51  65 W8        30.29F
RED WING       SUNNY     64  52  63 W9        30.25F
STANTON        SUNNY     65  51  60 W7        30.26F
DODGE CENTER   SUNNY     63  52  67 W8        30.28F
WINONA         MOSUNNY   63  50  63 NW10      30.26F
AUSTIN         SUNNY     63  52  67 SW5       30.28F
PRESTON        SUNNY     62  55  77 W10       30.29S
$$
ABBREVIATIONS USED IN REMARKS
   TC - TEMPERATURES IN CELSIUS
  WCI - WIND CHILL INDEX
   HX - HEAT INDEX
  VSB - VISIBILITY
$$



USA.gov is the U.S. government's official web portal to all federal, state and local government web resources and services.